• In India
  • List of Countries
  • For 7 days
  • Water Temperature
  • Satellite Maps
  • Weather Map
  • Weather Widgets
  • user-avatar
    Login

    Hourly Weather Innsbruck

    Today, 25 November, Saturday

    Time Temperature Precipitation Wind Pressure Humidity
    00:00 -4°C° 0 mm 2 mps 593 mmHg 90%
    01:00 -4°C° 0 mm 3 mps 593 mmHg 89%
    02:00 -4°C° 0 mm 3 mps 592 mmHg 90%
    03:00 -5°C° 0 mm 3 mps 592 mmHg 91%
    04:00 -5°C° 0 mm 3 mps 591 mmHg 92%
    05:00 -5°C° 0 mm 3 mps 591 mmHg 91%
    06:00 -5°C° 0 mm 3 mps 590 mmHg 91%
    07:00 -5°C° 0 mm 3 mps 590 mmHg 90%
    08:00 -4°C° 0 mm 3 mps 590 mmHg 89%
    09:00 -2°C° 0 mm 3 mps 590 mmHg 88%
    10:00 -1°C° 0 mm 3 mps 590 mmHg 87%
    11:00 -1°C° 0.4 mm 3 mps 590 mmHg 89%
    12:00 -1°C° 0.4 mm 2 mps 590 mmHg 91%
    13:00 -1°C° 0.4 mm 2 mps 590 mmHg 92%
    14:00 -1°C° 1.5 mm 2 mps 590 mmHg 94%
    15:00 -2°C° 1.5 mm 2 mps 590 mmHg 95%
    16:00 -3°C° 1.5 mm 2 mps 590 mmHg 96%
    17:00 -4°C° 1 mm 2 mps 590 mmHg 96%
    18:00 -4°C° 1 mm 2 mps 590 mmHg 96%
    19:00 -5°C° 1 mm 2 mps 590 mmHg 96%
    20:00 -5°C° 0.9 mm 2 mps 590 mmHg 95%
    21:00 -6°C° 0.9 mm 2 mps 590 mmHg 95%
    22:00 -7°C° 0.9 mm 3 mps 590 mmHg 95%
    23:00 -7°C° 0.7 mm 3 mps 590 mmHg 95%

    Tomorrow, 26 November, Sunday

    Time Temperature Precipitation Wind Pressure Humidity
    00:00 -8°C° 0.7 mm 3 mps 591 mmHg 95%
    01:00 -8°C° 0.7 mm 3 mps 591 mmHg 95%
    02:00 -9°C° 0.5 mm 3 mps 591 mmHg 95%
    03:00 -9°C° 0.5 mm 3 mps 591 mmHg 95%
    04:00 -10°C° 0.5 mm 3 mps 591 mmHg 95%
    05:00 -10°C° 0.4 mm 3 mps 591 mmHg 94%
    06:00 -10°C° 0.4 mm 3 mps 592 mmHg 94%
    07:00 -12°C° 0.4 mm 3 mps 592 mmHg 94%
    08:00 -12°C° 0.2 mm 3 mps 592 mmHg 92%
    09:00 -12°C° 0.2 mm 3 mps 593 mmHg 90%
    10:00 -12°C° 0.2 mm 3 mps 593 mmHg 88%
    11:00 -10°C° 0.1 mm 3 mps 593 mmHg 85%
    12:00 -10°C° 0.1 mm 3 mps 594 mmHg 82%
    13:00 -10°C° 0.1 mm 3 mps 594 mmHg 80%
    14:00 -10°C° 0 mm 2 mps 594 mmHg 83%
    15:00 -12°C° 0 mm 2 mps 593 mmHg 86%
    16:00 -12°C° 0 mm 2 mps 593 mmHg 89%
    17:00 -14°C° 0 mm 2 mps 593 mmHg 90%
    18:00 -15°C° 0 mm 2 mps 593 mmHg 91%
    19:00 -16°C° 0 mm 2 mps 593 mmHg 93%
    20:00 -16°C° 0 mm 2 mps 593 mmHg 92%
    21:00 -17°C° 0 mm 2 mps 593 mmHg 92%
    22:00 -17°C° 0 mm 2 mps 593 mmHg 91%
    23:00 -17°C° 0 mm 2 mps 593 mmHg 90%

    Day after tomorrow, 27 November, Monday

    Time Temperature Precipitation Wind Pressure Humidity
    00:00 -17°C° 0 mm 2 mps 593 mmHg 90%
    01:00 -17°C° 0 mm 2 mps 593 mmHg 89%
    02:00 -17°C° 0 mm 2 mps 593 mmHg 89%
    03:00 -17°C° 0 mm 2 mps 593 mmHg 88%
    04:00 -17°C° 0 mm 2 mps 593 mmHg 88%
    05:00 -17°C° 0 mm 2 mps 594 mmHg 88%
    06:00 -17°C° 0 mm 2 mps 594 mmHg 89%
    07:00 -17°C° 0 mm 2 mps 594 mmHg 89%
    08:00 -13°C° 0 mm 1 mps 595 mmHg 87%
    09:00 -12°C° 0 mm 1 mps 595 mmHg 84%
    10:00 -10°C° 0 mm 1 mps 596 mmHg 82%
    11:00 -9°C° 0 mm 1 mps 596 mmHg 79%
    12:00 -8°C° 0 mm 1 mps 596 mmHg 75%
    13:00 -7°C° 0 mm 1 mps 596 mmHg 72%
    14:00 -8°C° 0 mm 1 mps 595 mmHg 76%
    15:00 -9°C° 0 mm 1 mps 595 mmHg 80%
    16:00 -10°C° 0 mm 1 mps 594 mmHg 84%
    17:00 -11°C° 0 mm 1 mps 593 mmHg 81%
    18:00 -12°C° 0 mm 1 mps 593 mmHg 78%
    19:00 -13°C° 0 mm 1 mps 593 mmHg 75%
    20:00 -13°C° 0 mm 1 mps 593 mmHg 70%
    21:00 -13°C° 0 mm 1 mps 593 mmHg 66%
    22:00 -12°C° 0 mm 1 mps 592 mmHg 62%
    23:00 -14°C° 0 mm 2 mps 592 mmHg 61%

    28 November, Tuesday

    Time Temperature Precipitation Wind Pressure Humidity
    00:00 -14°C° 0 mm 2 mps 592 mmHg 60%
    01:00 -13°C° 0 mm 2 mps 591 mmHg 60%
    02:00 -13°C° 0 mm 2 mps 591 mmHg 60%
    03:00 -13°C° 0 mm 2 mps 590 mmHg 61%
    04:00 -13°C° 0 mm 2 mps 590 mmHg 61%
    05:00 -13°C° 0 mm 2 mps 590 mmHg 61%
    06:00 -12°C° 0 mm 2 mps 589 mmHg 61%
    07:00 -12°C° 0 mm 2 mps 589 mmHg 62%
    08:00 -10°C° 0 mm 2 mps 589 mmHg 63%
    09:00 -8°C° 0 mm 2 mps 590 mmHg 64%
    10:00 -6°C° 0 mm 2 mps 590 mmHg 66%
    11:00 -5°C° 0 mm 2 mps 590 mmHg 66%
    12:00 -2°C° 0 mm 1 mps 590 mmHg 66%
    13:00 -1°C° 0 mm 1 mps 590 mmHg 66%
    14:00 -3°C° 0 mm 1 mps 589 mmHg 70%
    15:00 -4°C° 0 mm 1 mps 588 mmHg 73%
    16:00 -7°C° 0 mm 0 mps 587 mmHg 77%
    17:00 -8°C° 0 mm 1 mps 587 mmHg 78%
    18:00 -8°C° 0 mm 1 mps 586 mmHg 79%
    19:00 -9°C° 0 mm 1 mps 586 mmHg 79%
    20:00 -9°C° 0 mm 1 mps 586 mmHg 79%
    21:00 -9°C° 0 mm 1 mps 586 mmHg 79%
    22:00 -9°C° 0 mm 1 mps 586 mmHg 79%
    23:00 -9°C° 0 mm 1 mps 586 mmHg 79%

    29 November, Wednesday

    Time Temperature Precipitation Wind Pressure Humidity
    00:00 -9°C° 0 mm 1 mps 586 mmHg 80%
    01:00 -9°C° 0 mm 1 mps 586 mmHg 81%
    02:00 -10°C° 0 mm 1 mps 585 mmHg 81%
    03:00 -10°C° 0 mm 1 mps 585 mmHg 82%
    04:00 -10°C° 0 mm 1 mps 585 mmHg 83%
    05:00 -11°C° 0.1 mm 1 mps 584 mmHg 84%
    06:00 -11°C° 0.1 mm 1 mps 584 mmHg 85%
    07:00 -11°C° 0.1 mm 1 mps 584 mmHg 86%
    08:00 -10°C° 0.1 mm 1 mps 584 mmHg 85%
    09:00 -9°C° 0.1 mm 1 mps 585 mmHg 84%
    10:00 -8°C° 0.1 mm 1 mps 585 mmHg 83%
    11:00 -7°C° 0.1 mm 1 mps 585 mmHg 82%
    12:00 -6°C° 0.1 mm 1 mps 585 mmHg 81%
    13:00 -6°C° 0.1 mm 1 mps 585 mmHg 80%
    14:00 -6°C° 0.2 mm 1 mps 585 mmHg 84%
    15:00 -7°C° 0.2 mm 1 mps 584 mmHg 88%
    16:00 -7°C° 0.2 mm 1 mps 584 mmHg 92%
    17:00 -8°C° 0.3 mm 1 mps 584 mmHg 93%
    18:00 -8°C° 0.3 mm 1 mps 584 mmHg 94%
    19:00 -8°C° 0.3 mm 1 mps 584 mmHg 95%
    20:00 -9°C° 0.1 mm 1 mps 584 mmHg 95%
    21:00 -9°C° 0.1 mm 1 mps 584 mmHg 94%
    22:00 -10°C° 0.1 mm 1 mps 583 mmHg 94%
    23:00 -11°C° 0 mm 1 mps 583 mmHg 94%

    30 November, Thursday

    Time Temperature Precipitation Wind Pressure Humidity
    00:00 -11°C° 0 mm 1 mps 583 mmHg 94%
    01:00 -12°C° 0 mm 1 mps 582 mmHg 93%
    02:00 -14°C° 0 mm 2 mps 582 mmHg 93%
    03:00 -14°C° 0 mm 2 mps 582 mmHg 93%
    04:00 -15°C° 0 mm 2 mps 581 mmHg 93%
    05:00 -15°C° 0 mm 2 mps 581 mmHg 92%
    06:00 -16°C° 0 mm 2 mps 581 mmHg 92%
    07:00 -16°C° 0 mm 2 mps 581 mmHg 91%
    08:00 -13°C° 0 mm 1 mps 581 mmHg 87%
    09:00 -12°C° 0 mm 1 mps 582 mmHg 84%
    10:00 -10°C° 0 mm 1 mps 583 mmHg 80%
    11:00 -9°C° 0 mm 1 mps 583 mmHg 79%
    12:00 -8°C° 0 mm 1 mps 583 mmHg 78%
    13:00 -7°C° 0 mm 1 mps 583 mmHg 77%
    14:00 -8°C° 0 mm 1 mps 583 mmHg 81%
    15:00 -9°C° 0 mm 1 mps 583 mmHg 84%
    16:00 -10°C° 0 mm 1 mps 582 mmHg 88%
    17:00 -11°C° 0.1 mm 1 mps 582 mmHg 90%
    18:00 -12°C° 0.1 mm 1 mps 582 mmHg 91%
    19:00 -13°C° 0.1 mm 1 mps 582 mmHg 93%
    20:00 -13°C° 0.1 mm 1 mps 582 mmHg 93%
    21:00 -13°C° 0.1 mm 1 mps 582 mmHg 93%
    22:00 -14°C° 0.1 mm 1 mps 582 mmHg 93%
    23:00 -14°C° 0 mm 1 mps 582 mmHg 92%
    Show more